User: anonymous   Login
Location: Dob?e?
(49.9411°N, 15.1496°E)
Time: 12:56:57
(UTC+00:00)
Language:

BEESAT 3 - Orbit

View from above orbital plane
View from above orbital plane
View from above satellite
View from above satellite

Ground track
Ground track

The orbit data is extracted from the following two-line orbital elements,

1 39134U 13015E   21295.90427475  .00003272  00000-0  14483-3 0  9994
2 39134  64.8615 117.7745 0021000 313.7865  46.1526 15.23394670470623
Epoch (UTC): 22 October 2021 21:42:09
Eccentricity: 0.0021000
inclination: 64.8615°
perigee height: 481 km
apogee height: 510 km
right ascension of ascending node: 117.7745°
argument of perigee: 313.7865°
revolutions per day: 15.23394670
mean anomaly at epoch: 46.1526°
orbit number at epoch: 47062

The dashed part of the orbit path shows where the satellite is in the earth's shadow,  

DLR